,,Stat5,,Stat1,,Stat2,,Stat3,,Stat4,,Wind1,,Wind1,
time,status,PA1M_AVG,status,PR1M_SUM,status,RH1M_AVG,status,SR1M_AVG,status,TA1M_AVG,status,W1dAve1m,status,W1sAve1m,
2001-10-19, 00:00:01,VALID,920.198,VALID,0,VALID,97.6796,VALID,-0.0509425,VALID,18.2056,VALID,28,VALID,1.17272,
2001-10-19, 00:01:00,VALID,920.179,VALID,0,VALID,97.6262,VALID,-0.0339617,VALID,18.1959,VALID,27,VALID,1.0606,
2001-10-19, 00:02:01,VALID,920.162,VALID,0,VALID,97.5524,VALID,-0.0169808,VALID,18.1959,VALID,29,VALID,0.615986,
2001-10-19, 00:03:01,VALID,920.161,VALID,0,VALID,97.4799,VALID,-0.0339617,VALID,18.1998,VALID,64,VALID,0.236064,
2001-10-19, 00:04:00,VALID,920.151,VALID,0,VALID,97.3413,VALID,-0.0169808,VALID,18.1961,VALID,126,VALID,0.296464,
2001-10-19, 00:05:00,VALID,920.147,VALID,0,VALID,97.3045,VALID,-0.0509425,VALID,18.2219,VALID,158,VALID,0.172256,
2001-10-19, 00:06:00,VALID,920.124,VALID,0,VALID,97.3121,VALID,0,VALID,18.251,VALID,141,VALID,0.05625,
2001-10-19, 00:07:00,VALID,920.12,VALID,0,VALID,97.2714,VALID,-0.0169808,VALID,18.2605,VALID,84,VALID,0.109175,
2001-10-19, 00:08:00,VALID,920.094,VALID,0,VALID,97.0768,VALID,-0.0169808,VALID,18.2736,VALID,65,VALID,0.0703125,
2001-10-19, 00:09:00,VALID,920.071,VALID,0,VALID,97.0171,VALID,-0.0509425,VALID,18.2865,VALID,28,VALID,0.0964177,
2001-10-19, 00:10:00,VALID,920.063,VALID,0,VALID,96.9179,VALID,0,VALID,18.3024,VALID,10,VALID,0,
2001-10-19, 00:11:00,VALID,920.054,VALID,0,VALID,96.7081,VALID,0,VALID,18.2992,VALID,10,VALID,0,
2001-10-19, 00:12:00,VALID,920.04,VALID,0,VALID,96.6547,VALID,0,VALID,18.3186,VALID,10,VALID,0,
2001-10-19, 00:13:00,VALID,920.032,VALID,0,VALID,96.6801,VALID,0,VALID,18.338,VALID,10,VALID,0,
2001-10-19, 00:14:00,VALID,920.015,VALID,0,VALID,96.6636,VALID,-0.0339617,VALID,18.3576,VALID,11,VALID,0,
2001-10-19, 00:15:01,VALID,920.002,VALID,0,VALID,96.7106,VALID,-0.0509425,VALID,18.3705,VALID,12,VALID,0,
2001-10-19, 00:16:00,VALID,919.994,VALID,0,VALID,96.6229,VALID,-0.0339617,VALID,18.3737,VALID,12,VALID,0,
2001-10-19, 00:17:01,VALID,919.985,VALID,0,VALID,96.5809,VALID,-0.0169808,VALID,18.3636,VALID,12,VALID,0,
2001-10-19, 00:18:00,VALID,919.966,VALID,0,VALID,96.2401,VALID,0,VALID,18.3375,VALID,12,VALID,0,
2001-10-19, 00:19:00,VALID,919.956,VALID,0,VALID,95.893,VALID,0,VALID,18.3186,VALID,13,VALID,0,
2001-10-19, 00:20:00,VALID,919.953,VALID,0,VALID,95.8993,VALID,-0.0339617,VALID,18.3315,VALID,24,VALID,0,
2001-10-19, 00:21:00,VALID,919.937,VALID,0,VALID,95.9222,VALID,-0.0169808,VALID,18.3705,VALID,27,VALID,0,
2001-10-19, 00:22:01,VALID,919.919,VALID,0,VALID,96.043,VALID,-0.0509425,VALID,18.3864,VALID,28,VALID,0,
2001-10-19, 00:23:00,VALID,919.906,VALID,0,VALID,95.8281,VALID,0,VALID,18.373,VALID,79,VALID,0.344572,
2001-10-19, 00:24:00,VALID,919.899,VALID,0,VALID,95.6641,VALID,-0.0339617,VALID,18.3444,VALID,85,VALID,0.409152,
2001-10-19, 00:25:00,VALID,919.882,VALID,0,VALID,95.9019,VALID,-0.0339617,VALID,18.361,VALID,84,VALID,0.502734,
2001-10-19, 00:26:00,VALID,919.87,VALID,0,VALID,95.9019,VALID,-0.0169808,VALID,18.3442,VALID,83,VALID,0.375801,
2001-10-19, 00:27:01,VALID,919.865,VALID,0,VALID,95.9311,VALID,-0.0849042,VALID,18.3387,VALID,83,VALID,0.137747,
2001-10-19, 00:28:00,VALID,919.864,VALID,0,VALID,96.1384,VALID,-0.0339617,VALID,18.322,VALID,85,VALID,0.199219,
2001-10-19, 00:29:00,VALID,919.859,VALID,0,VALID,96.146,VALID,-0.0679233,VALID,18.3024,VALID,87,VALID,0.193555,
2001-10-19, 00:30:00,VALID,919.868,VALID,0,VALID,96.4181,VALID,-0.0169808,VALID,18.3091,VALID,74,VALID,0.229235,
2001-10-19, 00:31:01,VALID,919.855,VALID,0,VALID,96.5682,VALID,-0.0169808,VALID,18.3225,VALID,68,VALID,0.664268,
2001-10-19, 00:32:00,VALID,919.85,VALID,0,VALID,96.6496,VALID,-0.0339617,VALID,18.2992,VALID,66,VALID,0.476985,
2001-10-19, 00:33:00,VALID,919.854,VALID,0,VALID,96.7259,VALID,-0.0339617,VALID,18.2731,VALID,59,VALID,0.491753,
2001-10-19, 00:34:01,VALID,919.861,VALID,0,VALID,96.8365,VALID,-0.0509425,VALID,18.2473,VALID,61,VALID,0.350223,
2001-10-19, 00:35:01,VALID,919.844,VALID,0,VALID,96.9535,VALID,-0.0169808,VALID,18.2279,VALID,72,VALID,0.0297619,
2001-10-19, 00:36:00,VALID,919.84,VALID,0,VALID,96.895,VALID,-0.0339617,VALID,18.2127,VALID,105,VALID,0.535262,
2001-10-19, 00:37:00,VALID,919.844,VALID,0,VALID,96.9815,VALID,-0.0169808,VALID,18.173,VALID,108,VALID,0.441934,
2001-10-19, 00:38:00,VALID,919.837,VALID,0,VALID,97.0908,VALID,-0.0509425,VALID,18.1474,VALID,108,VALID,0.351151,
2001-10-19, 00:39:00,VALID,919.836,VALID,0,VALID,97.1938,VALID,-0.0339617,VALID,18.1472,VALID,108,VALID,0.147104,
2001-10-19, 00:40:00,VALID,919.822,VALID,0,VALID,97.3121,VALID,-0.0339617,VALID,18.147,VALID,54,VALID,0.125617,
2001-10-19, 00:41:00,VALID,919.823,VALID,0,VALID,97.457,VALID,0,VALID,18.1698,VALID,21,VALID,0.249178,
2001-10-19, 00:42:01,VALID,919.818,VALID,0,VALID,97.4888,VALID,0,VALID,18.1664,VALID,29,VALID,0.335938,
2001-10-19, 00:43:00,VALID,919.807,VALID,0,VALID,97.555,VALID,-0.0339617,VALID,18.1804,VALID,38,VALID,0.294341,
2001-10-19, 00:44:00,VALID,919.808,VALID,0,VALID,97.5575,VALID,-0.0169808,VALID,18.1604,VALID,65,VALID,0.478348,
2001-10-19, 00:45:01,VALID,919.792,VALID,0,VALID,97.466,VALID,0,VALID,18.1313,VALID,77,VALID,0.512541,
2001-10-19, 00:46:00,VALID,919.794,VALID,0,VALID,97.4354,VALID,-0.0339617,VALID,18.0958,VALID,76,VALID,0.676309,
2001-10-19, 00:47:01,VALID,919.785,VALID,0,VALID,97.5537,VALID,-0.0509425,VALID,18.093,VALID,75,VALID,0.923314,
2001-10-19, 00:48:00,VALID,919.771,VALID,0,VALID,97.6414,VALID,-0.0509425,VALID,18.0859,VALID,76,VALID,0.864231,
2001-10-19, 00:49:00,VALID,919.755,VALID,0,VALID,97.588,VALID,0,VALID,18.0729,VALID,87,VALID,0.56543,
2001-10-19, 00:50:00,VALID,919.746,VALID,0,VALID,97.5384,VALID,-0.0339617,VALID,18.0503,VALID,108,VALID,0.952508,
2001-10-19, 00:51:00,VALID,919.742,VALID,0,VALID,97.5333,VALID,0,VALID,18.0573,VALID,136,VALID,0.669271,
2001-10-19, 00:52:01,VALID,919.746,VALID,0,VALID,97.527,VALID,-0.0169808,VALID,18.0697,VALID,145,VALID,0.605469,
2001-10-19, 00:53:00,VALID,919.738,VALID,0,VALID,97.5232,VALID,-0.0169808,VALID,18.0796,VALID,124,VALID,0.647615,
2001-10-19, 00:54:00,VALID,919.726,VALID,0,VALID,97.5702,VALID,-0.0679233,VALID,18.0833,VALID,110,VALID,0.707812,
2001-10-19, 00:55:00,VALID,919.726,VALID,0,VALID,97.574,VALID,-0.0679233,VALID,18.0799,VALID,92,VALID,0.496875,
2001-10-19, 00:56:01,VALID,919.717,VALID,0,VALID,97.6084,VALID,-0.0169808,VALID,18.0893,VALID,98,VALID,0.276643,
2001-10-19, 00:57:00,VALID,919.699,VALID,0,VALID,97.6541,VALID,0,VALID,18.0988,VALID,133,VALID,0.294202,
2001-10-19, 00:58:00,VALID,919.69,VALID,0,VALID,97.6681,VALID,-0.0169808,VALID,18.1085,VALID,75,VALID,0.361225,
2001-10-19, 00:59:00,VALID,919.683,VALID,0,VALID,97.6859,VALID,-0.0169808,VALID,18.1285,VALID,14,VALID,0.317969,
2001-10-19, 01:00:00,VALID,919.671,VALID,0,VALID,97.7165,VALID,-0.0169808,VALID,18.1375,VALID,14,VALID,0.243627,
2001-10-19, 01:01:01,VALID,919.666,VALID,0,VALID,97.6986,VALID,-0.0339617,VALID,18.1311,VALID,28,VALID,0.314556,
2001-10-19, 01:02:00,VALID,919.657,VALID,0,VALID,97.6656,VALID,-0.0509425,VALID,18.1315,VALID,28,VALID,0.140625,
2001-10-19, 01:03:00,VALID,919.647,VALID,0,VALID,97.6529,VALID,-0.0169808,VALID,18.1082,VALID,50,VALID,0.136068,
2001-10-19, 01:04:01,VALID,919.645,VALID,0,VALID,97.6529,VALID,0,VALID,18.099,VALID,105,VALID,0.0553571,
2001-10-19, 01:05:01,VALID,919.635,VALID,0,VALID,97.6758,VALID,-0.0169808,VALID,18.0792,VALID,115,VALID,0.354725,
2001-10-19, 01:06:00,VALID,919.629,VALID,0,VALID,97.7215,VALID,0,VALID,18.0596,VALID,108,VALID,0.366554,
2001-10-19, 01:07:00,VALID,919.622,VALID,0,VALID,97.7927,VALID,0,VALID,18.0665,VALID,97,VALID,0.189189,
2001-10-19, 01:08:00,VALID,919.613,VALID,0,VALID,97.8462,VALID,-0.0169808,VALID,18.063,VALID,105,VALID,0.262541,
2001-10-19, 01:09:00,VALID,919.61,VALID,0,VALID,97.8436,VALID,-0.0509425,VALID,18.0663,VALID,89,VALID,0.447599,
2001-10-19, 01:10:00,VALID,919.599,VALID,0,VALID,97.8373,VALID,-0.0339617,VALID,18.063,VALID,65,VALID,0.670025,
2001-10-19, 01:11:00,VALID,919.586,VALID,0,VALID,97.7877,VALID,0,VALID,18.0833,VALID,76,VALID,1.06209,
2001-10-19, 01:12:00,VALID,919.582,VALID,0,VALID,97.6834,VALID,-0.0169808,VALID,18.0727,VALID,85,VALID,0.669705,
2001-10-19, 01:13:01,VALID,919.566,VALID,0,VALID,97.6147,VALID,0,VALID,18.0826,VALID,116,VALID,0.267525,
2001-10-19, 01:14:01,VALID,919.565,VALID,0,VALID,97.6134,VALID,0,VALID,18.0891,VALID,115,VALID,0.000446429,
2001-10-19, 01:15:01,VALID,919.563,VALID,0,VALID,97.5918,VALID,-0.0169808,VALID,18.1117,VALID,114,VALID,0.339638,
2001-10-19, 01:16:01,VALID,919.554,VALID,0,VALID,97.4596,VALID,0,VALID,18.1025,VALID,110,VALID,0.425253,
2001-10-19, 01:17:01,VALID,919.537,VALID,0,VALID,97.4443,VALID,0.0169808,VALID,18.1046,VALID,110,VALID,0.153372,
2001-10-19, 01:18:01,VALID,919.524,VALID,0,VALID,97.4329,VALID,0.101885,VALID,18.1073,VALID,110,VALID,0.318623,
2001-10-19, 01:19:00,VALID,919.512,VALID,0,VALID,97.4227,VALID,0.101885,VALID,18.1101,VALID,124,VALID,0.176367,
2001-10-19, 01:20:01,VALID,919.511,VALID,0,VALID,97.4965,VALID,0.101885,VALID,18.1101,VALID,156,VALID,0.11472,
2001-10-19, 01:21:00,VALID,919.494,VALID,0,VALID,97.5651,VALID,0.101885,VALID,18.1166,VALID,94,VALID,0.00976563,
2001-10-19, 01:22:01,VALID,919.474,VALID,0,VALID,97.6694,VALID,0.0679233,VALID,18.1327,VALID,40,VALID,0.114583,
2001-10-19, 01:23:00,VALID,919.461,VALID,0,VALID,97.6427,VALID,0.0679233,VALID,18.1329,VALID,40,VALID,0,
2001-10-19, 01:24:01,VALID,919.459,VALID,0,VALID,97.6758,VALID,0.0849042,VALID,18.1327,VALID,40,VALID,0,
2001-10-19, 01:25:01,VALID,919.441,VALID,0,VALID,97.6872,VALID,0.101885,VALID,18.1364,VALID,40,VALID,0,
2001-10-19, 01:26:00,VALID,919.427,VALID,0,VALID,97.6872,VALID,0.0849042,VALID,18.1295,VALID,40,VALID,0,
2001-10-19, 01:27:01,VALID,919.419,VALID,0,VALID,97.7292,VALID,0.118866,VALID,18.1461,VALID,48,VALID,0,
2001-10-19, 01:28:01,VALID,919.412,VALID,0,VALID,97.719,VALID,0.101885,VALID,18.1394,VALID,107,VALID,0.0507813,
2001-10-19, 01:29:01,VALID,919.413,VALID,0,VALID,97.7495,VALID,0.101885,VALID,18.1265,VALID,128,VALID,0.379883,
2001-10-19, 01:30:01,VALID,919.406,VALID,0,VALID,97.6885,VALID,0.0849042,VALID,18.1131,VALID,125,VALID,0.072574,
2001-10-19, 01:31:01,VALID,919.4,VALID,0,VALID,97.6745,VALID,0.0849042,VALID,18.1136,VALID,92,VALID,0.327508,
2001-10-19, 01:32:01,VALID,919.398,VALID,0,VALID,97.6567,VALID,0.0679233,VALID,18.1011,VALID,88,VALID,0.127956,
2001-10-19, 01:33:01,VALID,919.4,VALID,0,VALID,97.7533,VALID,-0.0169808,VALID,18.1016,VALID,83,VALID,0.0763889,
2001-10-19, 01:34:01,VALID,919.393,VALID,0,VALID,97.719,VALID,0,VALID,18.0988,VALID,64,VALID,0.0111607,
2001-10-19, 01:35:01,VALID,919.386,VALID,0,VALID,97.7966,VALID,0,VALID,18.1085,VALID,58,VALID,0.334821,
2001-10-19, 01:36:01,VALID,919.388,VALID,0,VALID,97.8195,VALID,0,VALID,18.1152,VALID,58,VALID,0.288429,
2001-10-19, 01:37:01,VALID,919.378,VALID,0,VALID,97.8347,VALID,0,VALID,18.1082,VALID,57,VALID,0.596284,
2001-10-19, 01:38:01,VALID,919.372,VALID,0,VALID,97.8106,VALID,0,VALID,18.0958,VALID,66,VALID,0.21176,
2001-10-19, 01:39:01,VALID,919.367,VALID,0,VALID,97.8322,VALID,-0.0169808,VALID,18.076,VALID,50,VALID,0,
2001-10-19, 01:40:01,VALID,919.354,VALID,0,VALID,97.8182,VALID,0,VALID,18.0764,VALID,49,VALID,0,
2001-10-19, 01:41:01,VALID,919.349,VALID,0,VALID,97.8106,VALID,0,VALID,18.0695,VALID,49,VALID,0,
2001-10-19, 01:42:01,VALID,919.345,VALID,0,VALID,97.8474,VALID,-0.0169808,VALID,18.0665,VALID,48,VALID,0,
2001-10-19, 01:43:01,VALID,919.326,VALID,0,VALID,97.8907,VALID,0,VALID,18.0669,VALID,48,VALID,0,
2001-10-19, 01:44:01,VALID,919.331,VALID,0,VALID,97.8881,VALID,0,VALID,18.0603,VALID,48,VALID,0,
2001-10-19, 01:45:01,VALID,919.314,VALID,0,VALID,97.897,VALID,0,VALID,18.0506,VALID,48,VALID,0,
2001-10-19, 01:46:01,VALID,919.307,VALID,0,VALID,97.9695,VALID,0,VALID,18.0439,VALID,48,VALID,0,
2001-10-19, 01:47:01,VALID,919.3,VALID,0,VALID,98.0038,VALID,0,VALID,18.0404,VALID,48,VALID,0,
2001-10-19, 01:48:01,VALID,919.283,VALID,0,VALID,98.0191,VALID,0,VALID,18.034,VALID,48,VALID,0,
2001-10-19, 01:49:00,VALID,919.269,VALID,0,VALID,98.0547,VALID,0,VALID,18.0303,VALID,48,VALID,0,
2001-10-19, 01:50:00,VALID,919.265,VALID,0,VALID,98.0827,VALID,0,VALID,18.0243,VALID,48,VALID,0,
2001-10-19, 01:51:00,VALID,919.255,VALID,0,VALID,98.0496,VALID,0.0169808,VALID,18.0273,VALID,52,VALID,0,
2001-10-19, 01:52:00,VALID,919.237,VALID,0,VALID,98.0229,VALID,-0.0169808,VALID,18.0148,VALID,63,VALID,0,
2001-10-19, 01:53:00,VALID,919.234,VALID,0,VALID,98.0077,VALID,0,VALID,17.9987,VALID,63,VALID,0,
2001-10-19, 01:54:00,VALID,919.235,VALID,0,VALID,98.0356,VALID,0.0169808,VALID,17.9858,VALID,63,VALID,0,
2001-10-19, 01:55:00,VALID,919.229,VALID,0,VALID,98.0967,VALID,-0.0339617,VALID,17.9659,VALID,63,VALID,0,
2001-10-19, 01:56:00,VALID,919.245,VALID,0,VALID,98.1628,VALID,0,VALID,17.983,VALID,62,VALID,0,
2001-10-19, 01:57:00,VALID,919.241,VALID,0,VALID,98.2048,VALID,-0.0169808,VALID,17.9823,VALID,63,VALID,0,
2001-10-19, 01:58:00,VALID,919.25,VALID,0,VALID,98.2009,VALID,0,VALID,17.9823,VALID,63,VALID,0,
2001-10-19, 01:59:00,VALID,919.247,VALID,0,VALID,98.2149,VALID,0,VALID,17.9825,VALID,63,VALID,0,
2001-10-19, 02:00:00,VALID,919.248,VALID,0,VALID,98.2175,VALID,-0.0169808,VALID,17.9729,VALID,64,VALID,0,
2001-10-19, 02:01:00,VALID,919.252,VALID,0,VALID,98.2683,VALID,-0.0169808,VALID,17.9696,VALID,64,VALID,0,
2001-10-19, 02:02:00,VALID,919.248,VALID,0,VALID,98.3179,VALID,0,VALID,17.9761,VALID,64,VALID,0,
2001-10-19, 02:03:00,VALID,919.249,VALID,0,VALID,98.3344,VALID,0,VALID,17.9759,VALID,64,VALID,0,
2001-10-19, 02:04:00,VALID,919.243,VALID,0,VALID,98.337,VALID,0,VALID,17.9791,VALID,64,VALID,0,
2001-10-19, 02:05:00,VALID,919.24,VALID,0,VALID,98.3942,VALID,0,VALID,18.0026,VALID,64,VALID,0,
2001-10-19, 02:06:00,VALID,919.24,VALID,0,VALID,98.4006,VALID,-0.0169808,VALID,18.0054,VALID,64,VALID,0,
2001-10-19, 02:07:00,VALID,919.242,VALID,0,VALID,98.4057,VALID,0,VALID,17.9985,VALID,64,VALID,0,
2001-10-19, 02:08:00,VALID,919.242,VALID,0,VALID,98.426,VALID,0,VALID,18.0084,VALID,64,VALID,0,
2001-10-19, 02:09:00,VALID,919.243,VALID,0,VALID,98.4591,VALID,-0.0169808,VALID,18.0181,VALID,64,VALID,0,
2001-10-19, 02:10:00,VALID,919.232,VALID,0,VALID,98.4451,VALID,-0.0169808,VALID,18.0342,VALID,64,VALID,0,
2001-10-19, 02:11:00,VALID,919.224,VALID,0,VALID,98.4273,VALID,0,VALID,18.0275,VALID,64,VALID,0,
2001-10-19, 02:12:00,VALID,919.224,VALID,0,VALID,98.4184,VALID,0,VALID,18.0275,VALID,65,VALID,0,
2001-10-19, 02:13:00,VALID,919.223,VALID,0,VALID,98.4298,VALID,-0.0339617,VALID,18.0379,VALID,75,VALID,0,
2001-10-19, 02:14:00,VALID,919.215,VALID,0,VALID,98.426,VALID,0,VALID,18.034,VALID,110,VALID,0,
2001-10-19, 02:15:00,VALID,919.209,VALID,0,VALID,98.4781,VALID,0,VALID,18.0609,VALID,129,VALID,0.0191201,
2001-10-19, 02:16:00,VALID,919.207,VALID,0,VALID,98.4972,VALID,0,VALID,18.0665,VALID,143,VALID,0.353463,
2001-10-19, 02:17:00,VALID,919.206,VALID,0,VALID,98.5023,VALID,0,VALID,18.0796,VALID,146,VALID,0.42866,
2001-10-19, 02:18:00,VALID,919.188,VALID,0,VALID,98.5023,VALID,0.0169808,VALID,18.0824,VALID,150,VALID,0.597762,
2001-10-19, 02:19:00,VALID,919.19,VALID,0,VALID,98.4769,VALID,-0.0169808,VALID,18.0891,VALID,152,VALID,0.336914,
2001-10-19, 02:20:00,VALID,919.184,VALID,0,VALID,98.4654,VALID,-0.0169808,VALID,18.0861,VALID,142,VALID,0.132607,
2001-10-19, 02:21:00,VALID,919.181,VALID,0,VALID,98.4222,VALID,0,VALID,18.076,VALID,121,VALID,0.062934,
2001-10-19, 02:22:00,VALID,919.182,VALID,0,VALID,98.3815,VALID,0,VALID,18.0697,VALID,121,VALID,0.191406,
2001-10-19, 02:23:00,VALID,919.176,VALID,0,VALID,98.3828,VALID,0,VALID,18.0564,VALID,109,VALID,0,
2001-10-19, 02:24:00,VALID,919.171,VALID,0,VALID,98.3942,VALID,0.0169808,VALID,18.0826,VALID,63,VALID,0.0194196,
2001-10-19, 02:25:00,VALID,919.162,VALID,0,VALID,98.4006,VALID,0,VALID,18.0727,VALID,60,VALID,0.0117188,
2001-10-19, 02:26:00,VALID,919.154,VALID,0,VALID,98.4069,VALID,0,VALID,18.0859,VALID,60,VALID,0,
2001-10-19, 02:27:00,VALID,919.135,VALID,0,VALID,98.4184,VALID,0,VALID,18.079,VALID,60,VALID,0,
2001-10-19, 02:28:00,VALID,919.118,VALID,0,VALID,98.4184,VALID,-0.0169808,VALID,18.0891,VALID,60,VALID,0,
2001-10-19, 02:29:00,VALID,919.117,VALID,0,VALID,98.4298,VALID,-0.0169808,VALID,18.0921,VALID,60,VALID,0,
2001-10-19, 02:30:00,VALID,919.124,VALID,0,VALID,98.4298,VALID,0,VALID,18.0919,VALID,60,VALID,0,
2001-10-19, 02:31:00,VALID,919.124,VALID,0,VALID,98.426,VALID,-0.0169808,VALID,18.0992,VALID,60,VALID,0,
2001-10-19, 02:32:00,VALID,919.136,VALID,0,VALID,98.412,VALID,0,VALID,18.0854,VALID,61,VALID,0.0622889,
2001-10-19, 02:33:00,VALID,919.123,VALID,0,VALID,98.2658,VALID,-0.0169808,VALID,18.0702,VALID,81,VALID,0.361762,
2001-10-19, 02:34:00,VALID,919.122,VALID,0,VALID,98.2238,VALID,-0.0169808,VALID,18.0342,VALID,81,VALID,0.458036,
2001-10-19, 02:35:00,VALID,919.116,VALID,0,VALID,98.2073,VALID,-0.0169808,VALID,18.0344,VALID,80,VALID,0.354353,
2001-10-19, 02:36:00,VALID,919.124,VALID,0.2,VALID,98.2149,VALID,0,VALID,18.0081,VALID,70,VALID,0.34734,
2001-10-19, 02:37:00,VALID,919.129,VALID,0,VALID,98.2543,VALID,-0.0169808,VALID,18.0185,VALID,38,VALID,0.43011,
2001-10-19, 02:38:00,VALID,919.13,VALID,0,VALID,98.2645,VALID,0,VALID,18.0051,VALID,49,VALID,0.374794,
2001-10-19, 02:39:00,VALID,919.131,VALID,0,VALID,98.2365,VALID,0,VALID,17.9982,VALID,47,VALID,0.310213,
2001-10-19, 02:40:00,VALID,919.129,VALID,0,VALID,98.2569,VALID,0,VALID,17.9959,VALID,43,VALID,0.356497,
2001-10-19, 02:41:00,VALID,919.125,VALID,0,VALID,98.2823,VALID,-0.0169808,VALID,17.9825,VALID,32,VALID,0.363076,
2001-10-19, 02:42:00,VALID,919.136,VALID,0,VALID,98.3014,VALID,-0.0169808,VALID,17.9892,VALID,24,VALID,0.13954,
2001-10-19, 02:43:00,VALID,919.128,VALID,0,VALID,98.3205,VALID,0,VALID,17.992,VALID,25,VALID,0,
2001-10-19, 02:44:00,VALID,919.12,VALID,0,VALID,98.3141,VALID,-0.0169808,VALID,17.9888,VALID,99,VALID,0.05625,
2001-10-19, 02:45:00,VALID,919.121,VALID,0,VALID,98.3421,VALID,0.0169808,VALID,17.9828,VALID,111,VALID,0,
2001-10-19, 02:46:00,VALID,919.107,VALID,0,VALID,98.3866,VALID,-0.0169808,VALID,17.9922,VALID,111,VALID,0.126267,
2001-10-19, 02:47:00,VALID,919.102,VALID,0,VALID,98.398,VALID,0,VALID,17.9987,VALID,111,VALID,0.00801809,
2001-10-19, 02:48:00,VALID,919.1,VALID,0,VALID,98.3777,VALID,0,VALID,17.9823,VALID,111,VALID,0.117821,
2001-10-19, 02:49:00,VALID,919.098,VALID,0,VALID,98.4247,VALID,-0.0169808,VALID,17.9821,VALID,113,VALID,0.282422,
2001-10-19, 02:50:00,VALID,919.097,VALID,0,VALID,98.4514,VALID,0,VALID,17.9853,VALID,119,VALID,0.384252,
2001-10-19, 02:51:00,VALID,919.107,VALID,0,VALID,98.4692,VALID,0.0169808,VALID,18.0084,VALID,116,VALID,0.436849,
2001-10-19, 02:52:00,VALID,919.11,VALID,0,VALID,98.4502,VALID,-0.0169808,VALID,17.9922,VALID,115,VALID,0.705729,
2001-10-19, 02:53:00,VALID,919.116,VALID,0,VALID,98.4858,VALID,-0.0169808,VALID,18.0024,VALID,125,VALID,0.484786,
2001-10-19, 02:54:00,VALID,919.122,VALID,0,VALID,98.4959,VALID,0,VALID,17.9985,VALID,117,VALID,0.566741,
2001-10-19, 02:55:00,VALID,919.108,VALID,0,VALID,98.529,VALID,0,VALID,18.0081,VALID,106,VALID,0.58418,
2001-10-19, 02:56:00,VALID,919.113,VALID,0,VALID,98.5417,VALID,0,VALID,18.0114,VALID,108,VALID,0.870793,
2001-10-19, 02:57:00,VALID,919.103,VALID,0,VALID,98.5252,VALID,0.0169808,VALID,18.0019,VALID,112,VALID,1.08244,
2001-10-19, 02:58:00,VALID,919.099,VALID,0,VALID,98.5443,VALID,-0.0169808,VALID,17.9955,VALID,111,VALID,0.750411,
2001-10-19, 02:59:00,VALID,919.091,VALID,0,VALID,98.5061,VALID,0,VALID,18.0056,VALID,109,VALID,0.796875,
2001-10-19, 03:00:00,VALID,919.086,VALID,0,VALID,98.5455,VALID,-0.0339617,VALID,18.0086,VALID,113,VALID,0.804893,
2001-10-19, 03:01:00,VALID,919.069,VALID,0,VALID,98.4692,VALID,-0.0169808,VALID,18.0015,VALID,119,VALID,0.837171,
2001-10-19, 03:02:00,VALID,919.057,VALID,0,VALID,98.4998,VALID,0,VALID,18.0146,VALID,138,VALID,0.64147,
2001-10-19, 03:03:00,VALID,919.054,VALID,0,VALID,98.4998,VALID,0,VALID,18.0312,VALID,136,VALID,0.616319,
2001-10-19, 03:04:00,VALID,919.042,VALID,0,VALID,98.4731,VALID,-0.0339617,VALID,18.0374,VALID,122,VALID,0.485268,
2001-10-19, 03:05:00,VALID,919.037,VALID,0,VALID,98.4667,VALID,0,VALID,18.031,VALID,114,VALID,0.365885,
2001-10-19, 03:06:00,VALID,919.017,VALID,0,VALID,98.4972,VALID,-0.0169808,VALID,18.0411,VALID,117,VALID,0.620988,
2001-10-19, 03:07:00,VALID,919.005,VALID,0,VALID,98.4616,VALID,-0.0169808,VALID,18.0245,VALID,108,VALID,0.607475,
2001-10-19, 03:08:00,VALID,918.997,VALID,0,VALID,98.4629,VALID,0.0169808,VALID,18.0146,VALID,97,VALID,0.822368,
2001-10-19, 03:09:00,VALID,918.986,VALID,0,VALID,98.3968,VALID,0,VALID,18.0051,VALID,101,VALID,1.08803,
2001-10-19, 03:10:00,VALID,918.97,VALID,0,VALID,98.3764,VALID,0,VALID,17.9985,VALID,102,VALID,0.840872,
2001-10-19, 03:11:00,VALID,918.97,VALID,0,VALID,98.3535,VALID,-0.0169808,VALID,17.9989,VALID,99,VALID,0.642475,
2001-10-19, 03:12:00,VALID,918.958,VALID,0,VALID,98.3306,VALID,0,VALID,18.0019,VALID,105,VALID,0.675564,
2001-10-19, 03:13:00,VALID,918.956,VALID,0,VALID,98.2874,VALID,-0.0169808,VALID,18.0155,VALID,101,VALID,0.726774,
2001-10-19, 03:14:00,VALID,918.96,VALID,0,VALID,98.2315,VALID,-0.0169808,VALID,18.0021,VALID,94,VALID,0.774107,
2001-10-19, 03:15:00,VALID,918.948,VALID,0,VALID,98.1793,VALID,-0.0509425,VALID,18.0021,VALID,98,VALID,0.909539,
2001-10-19, 03:16:00,VALID,918.947,VALID,0,VALID,98.0852,VALID,-0.0169808,VALID,17.9957,VALID,111,VALID,0.934755,
2001-10-19, 03:17:00,VALID,918.946,VALID,0,VALID,98.0216,VALID,-0.0169808,VALID,17.9855,VALID,117,VALID,1.05921,
2001-10-19, 03:18:00,VALID,918.94,VALID,0,VALID,97.9352,VALID,-0.0169808,VALID,18.0153,VALID,119,VALID,1.05363,
2001-10-19, 03:19:00,VALID,918.936,VALID,0,VALID,97.7152,VALID,0,VALID,18.0213,VALID,106,VALID,1.22266,
2001-10-19, 03:20:00,VALID,918.929,VALID,0,VALID,97.5677,VALID,0,VALID,18.0478,VALID,88,VALID,0.625206,
2001-10-19, 03:21:00,VALID,918.919,VALID,0,VALID,97.4189,VALID,0,VALID,18.0635,VALID,93,VALID,0.74783,
2001-10-19, 03:22:00,VALID,918.923,VALID,0,VALID,97.3591,VALID,-0.0169808,VALID,18.0568,VALID,93,VALID,0.871962,
2001-10-19, 03:23:00,VALID,918.915,VALID,0,VALID,97.2193,VALID,-0.0169808,VALID,18.0734,VALID,80,VALID,0.89597,
2001-10-19, 03:24:00,VALID,918.916,VALID,0,VALID,97.2218,VALID,-0.0169808,VALID,18.0833,VALID,60,VALID,0.553571,
2001-10-19, 03:25:00,VALID,918.912,VALID,0,VALID,97.2167,VALID,-0.0169808,VALID,18.096,VALID,93,VALID,0.520312,
2001-10-19, 03:26:00,VALID,918.916,VALID,0,VALID,97.3095,VALID,-0.0169808,VALID,18.0891,VALID,143,VALID,1.128,
2001-10-19, 03:27:00,VALID,918.916,VALID,0,VALID,97.4927,VALID,-0.0169808,VALID,18.0928,VALID,134,VALID,1.07175,
2001-10-19, 03:28:00,VALID,918.912,VALID,0,VALID,97.4265,VALID,0,VALID,18.0796,VALID,88,VALID,1.07607,
2001-10-19, 03:29:00,VALID,918.904,VALID,0,VALID,97.3769,VALID,0,VALID,18.0635,VALID,59,VALID,1.23438,
2001-10-19, 03:30:00,VALID,918.889,VALID,0,VALID,97.3273,VALID,0,VALID,18.0699,VALID,69,VALID,0.875822,
2001-10-19, 03:31:00,VALID,918.896,VALID,0,VALID,97.232,VALID,-0.0169808,VALID,18.0732,VALID,96,VALID,0.536801,
2001-10-19, 03:32:00,VALID,918.902,VALID,0,VALID,97.1976,VALID,-0.0169808,VALID,18.0665,VALID,139,VALID,0.792441,
2001-10-19, 03:33:00,VALID,918.898,VALID,0,VALID,97.3273,VALID,-0.0169808,VALID,18.0829,VALID,143,VALID,1.15061,
2001-10-19, 03:34:00,VALID,918.898,VALID,0,VALID,97.4049,VALID,-0.0169808,VALID,18.0928,VALID,124,VALID,0.798661,
2001-10-19, 03:35:00,VALID,918.9,VALID,0,VALID,97.3833,VALID,-0.0169808,VALID,18.099,VALID,98,VALID,0.68657,
2001-10-19, 03:36:00,VALID,918.888,VALID,0,VALID,96.9942,VALID,-0.0169808,VALID,18.0764,VALID,86,VALID,0.688556,
2001-10-19, 03:37:00,VALID,918.872,VALID,0,VALID,96.8378,VALID,0,VALID,18.1221,VALID,110,VALID,0.40984,
2001-10-19, 03:38:00,VALID,918.879,VALID,0,VALID,96.7526,VALID,0,VALID,18.141,VALID,150,VALID,0.539679,
2001-10-19, 03:39:00,VALID,918.857,VALID,0,VALID,96.633,VALID,-0.0169808,VALID,18.18,VALID,105,VALID,0.393483,